This demonstration page uses our WeatherBlox Daily Observations layout. Learn more.

Left ArrowRight Arrow

41.86663, -103.66717

Hourly Observations for January 16, 2017

Temp ( °F °C ) Dew Point ( °F °C ) Humidity (%) Winds ( mph kmh ) Pressure ( in mb ) Visibility ( mi km ) Precip ( " mm )
12:36 am 00:36 Cloudy 32 0 27 -3 80 80 NW 6 9 30.12 1020 10 16 0.00 0.00
12:53 am 00:53 Cloudy 32 0 27 -2.8 82 82 WNW 5 7 30.06 1018 10 16 0.00 0.00
1:00 am 01:00 Cloudy 32 0 27 -3 80 80 WNW 3 6 30.12 1020 10 16 0.00 0.00
1:53 am 01:53 Cloudy 32 0 27 -2.8 82 82 W 3 6 30.05 1018 10 16 0.00 0.00
2:53 am 02:53 Cloudy 33 0.6 27 -2.8 78 78 WNW 6 9 30.05 1018 10 16 0.00 0.00
3:53 am 03:53 Cloudy 33 0.6 27 -2.8 78 78 WNW 8 13 30.04 1017 10 16 0.00 0.00
4:53 am 04:53 Cloudy 35 1.7 25 -3.9 67 67 WNW 9 15 30.05 1018 10 16 0.00 0.00
5:53 am 05:53 Cloudy 34 1.1 24 -4.4 67 67 NW 9 15 30.09 1019 10 16 0.00 0.00
6:53 am 06:53 Cloudy 35 1.7 23 -5 61 61 NNW 10 17 30.10 1019 10 16 0.00 0.00
7:53 am 07:53 Cloudy 34 1.1 21 -6.1 59 59 NW 8 13 30.11 1020 10 16 0.00 0.00
8:53 am 08:53 Cloudy 36 2.2 18 -7.8 48 48 NNW 10 17 30.13 1020 10 16 0.00 0.00
9:53 am 09:53 Cloudy 37 2.8 18 -7.8 46 46 NW 12 19 30.15 1021 10 16 0.00 0.00
10:53 am 10:53 Cloudy 38 3.3 19 -7.2 46 46 WNW 10 17 30.15 1021 10 16 0.00 0.00
11:53 am 11:53 Cloudy 38 3.3 18 -7.8 44 44 undefined N/A 30.13 1020 10 16 0.00 0.00
12:53 pm 12:53 Cloudy 40 4.4 17 -8.3 40 40 WNW 12 19 30.10 1019 10 16 0.00 0.00
1:53 pm 13:53 Cloudy 41 5 17 -8.3 38 38 NW 12 19 30.08 1019 10 16 0.00 0.00
2:53 pm 14:53 Sunny 41 5 19 -7.2 41 41 N 13 20 30.09 1019 10 16 0.00 0.00
3:53 pm 15:53 Sunny 40 4.4 19 -7.2 43 43 N 9 15 30.11 1020 10 16 0.00 0.00
4:53 pm 16:53 Clear 34 1.1 19 -7.2 54 54 NNW 7 11 30.14 1021 10 16 0.00 0.00
5:53 pm 17:53 Clear 31 -0.6 19 -7.2 61 61 N 6 9 30.17 1022 10 16 0.00 0.00
6:53 pm 18:53 Clear 30 -1.1 19 -7.2 64 64 NW 6 9 30.17 1022 10 16 0.00 0.00
7:53 pm 19:53 Clear 25 -3.9 18 -7.8 75 75 NW 7 11 30.19 1022 10 16 0.00 0.00
8:53 pm 20:53 Clear 23 -5 17 -8.3 78 78 NW 6 9 30.18 1022 10 16 0.00 0.00
9:53 pm 21:53 Clear 23 -5 16 -8.9 74 74 NW 7 11 30.18 1022 10 16 0.00 0.00
10:53 pm 22:53 Clear 21 -6.1 15 -9.4 78 78 NW 7 11 30.17 1022 10 16 0.00 0.00
11:53 pm 23:53 Clear 20 -6.7 14 -10 78 78 NW 6 9 30.17 1022 10 16 0.00 0.00

Powered by AerisWeather